Weather in Seongnam

South Korea     37°26′33″N   127°09′07″E
temp.,
°C
wind,
m/s
gust,
m/s
humid.,
%
clouds,
%
prec.,
mm/h
press.,
hPa
HPBL,
m
11 april, sun
sun1100:00+10w00470 0.0 103116
03:00+9ese11500 0.0 103111
06:00+8e11525 0.0 103112
09:00+13se113617 0.0 1032395
12:00+19s112616 0.0 10301053
15:00+21ssw11257 0.0 10281682
18:00+19e113367 0.0 1027849
21:00+15ese1142100 0.0 102723
12 april, mon
mon1200:00+15se1246100 0.0 102758
03:00+14se1249100 0.0 102584
06:00+13se1251100 0.0 1024133
09:00+15sse1242100 0.0 1023555
12:00+16sse2532100 0.0 10221639
15:00+13ese5947100 0.1 1018899
18:00+11ese31181100 1.8 1015550
21:00+11ese2590100 4.5 1013291
13 april, tue
tue1300:00+11e1195100 4.3 1011134
03:00+11sw1497100 9.1 1010370
06:00+11w2697100 0.5 1011668
09:00+12wnw467448 0.8 1013848
12:00+15wnw695018 0.0 10131443
15:00+15wnw7930100 0.0 10121856
18:00+12wnw682986 0.0 10131256
21:00+9wnw47380 0.0 1016705
14 april, wed
wed1400:00+7wnw374219 0.0 1017464
03:00+6wnw24460 0.0 1018298
06:00+5n11450 0.0 101990
09:00+10nw13390 0.0 1021631
12:00+14wnw48190 0.0 10201861
15:00+15wnw58200 0.0 10192263
18:00+12w46310 0.0 1019844
21:00+9wsw35410 0.0 1021291
15 april, thu
thu1500:00+8wsw11440 0.0 1021193
03:00+6se114999 0.0 102026
06:00+6sse1153100 0.0 102121
09:00+10sse1239100 0.0 1021542
12:00+15ssw2323100 0.0 10191215
15:00+17wsw45188 0.0 10162071
18:00+14wsw47250 0.0 1017748
21:00+10wsw24310 0.0 1019284